• En España
  • Lista de países
  • Para 7 días
  • Temperatura del agua
  • Mapa Satelital
  • El tiempo en el mapa
  • Informadores
  • user-avatar
    Iniciar sesión

    Tiempo cada hora Przylubie

    Hoy, 16 Agosto, Jueves

    Tiempo Temperatura Precipitaciones Viento Presión Humedad
    00:00 +18°C° 0 mm 1 mps 759 mmHg 80%
    01:00 +18°C° 0 mm 1 mps 759 mmHg 82%
    02:00 +16°C° 0 mm 1 mps 759 mmHg 83%
    03:00 +16°C° 0 mm 1 mps 759 mmHg 84%
    04:00 +15°C° 0 mm 0 mps 759 mmHg 85%
    05:00 +16°C° 0 mm 0 mps 760 mmHg 80%
    06:00 +17°C° 0 mm 0 mps 760 mmHg 75%
    07:00 +19°C° 0 mm 0 mps 760 mmHg 71%
    08:00 +20°C° 0 mm 0 mps 760 mmHg 64%
    09:00 +22°C° 0 mm 0 mps 760 mmHg 58%
    10:00 +24°C° 0 mm 0 mps 760 mmHg 52%
    11:00 +25°C° 0 mm 0 mps 760 mmHg 49%
    12:00 +26°C° 0 mm 0 mps 760 mmHg 46%
    13:00 +27°C° 0 mm 0 mps 759 mmHg 43%
    14:00 +28°C° 0 mm 1 mps 759 mmHg 43%
    15:00 +28°C° 0 mm 1 mps 759 mmHg 44%
    16:00 +28°C° 0 mm 1 mps 759 mmHg 44%
    17:00 +27°C° 0 mm 1 mps 758 mmHg 47%
    18:00 +26°C° 0 mm 1 mps 758 mmHg 51%
    19:00 +25°C° 0 mm 1 mps 758 mmHg 54%
    20:00 +24°C° 0 mm 1 mps 758 mmHg 55%
    21:00 +24°C° 0 mm 1 mps 758 mmHg 56%
    22:00 +23°C° 0 mm 1 mps 759 mmHg 57%
    23:00 +23°C° 0 mm 1 mps 759 mmHg 59%

    Mañana, 17 Agosto, Viernes

    Tiempo Temperatura Precipitaciones Viento Presión Humedad
    00:00 +22°C° 0 mm 1 mps 759 mmHg 61%
    01:00 +21°C° 0 mm 2 mps 759 mmHg 63%
    02:00 +20°C° 0 mm 2 mps 758 mmHg 66%
    03:00 +19°C° 0 mm 2 mps 758 mmHg 69%
    04:00 +19°C° 0 mm 2 mps 758 mmHg 73%
    05:00 +20°C° 0 mm 2 mps 758 mmHg 70%
    06:00 +21°C° 0 mm 2 mps 758 mmHg 68%
    07:00 +23°C° 0 mm 2 mps 758 mmHg 65%
    08:00 +24°C° 0 mm 2 mps 758 mmHg 59%
    09:00 +26°C° 0 mm 3 mps 758 mmHg 53%
    10:00 +28°C° 0 mm 3 mps 758 mmHg 47%
    11:00 +28°C° 0 mm 3 mps 758 mmHg 47%
    12:00 +28°C° 0 mm 3 mps 757 mmHg 46%
    13:00 +29°C° 0 mm 2 mps 757 mmHg 45%
    14:00 +28°C° 0 mm 2 mps 757 mmHg 47%
    15:00 +28°C° 0 mm 2 mps 757 mmHg 49%
    16:00 +28°C° 0 mm 2 mps 756 mmHg 50%
    17:00 +27°C° 0 mm 2 mps 756 mmHg 53%
    18:00 +26°C° 0 mm 1 mps 756 mmHg 56%
    19:00 +25°C° 0 mm 1 mps 756 mmHg 59%
    20:00 +25°C° 0 mm 1 mps 756 mmHg 59%
    21:00 +25°C° 0 mm 2 mps 757 mmHg 60%
    22:00 +24°C° 0 mm 2 mps 757 mmHg 60%
    23:00 +24°C° 0 mm 2 mps 757 mmHg 61%

    Pasado mañana, 18 Agosto, Sábado

    Tiempo Temperatura Precipitaciones Viento Presión Humedad
    00:00 +23°C° 0 mm 2 mps 757 mmHg 62%
    01:00 +23°C° 0 mm 2 mps 757 mmHg 63%
    02:00 +23°C° 0 mm 2 mps 757 mmHg 65%
    03:00 +22°C° 0 mm 1 mps 757 mmHg 66%
    04:00 +22°C° 0 mm 1 mps 757 mmHg 68%
    05:00 +23°C° 0 mm 1 mps 757 mmHg 66%
    06:00 +23°C° 0 mm 1 mps 757 mmHg 65%
    07:00 +24°C° 0 mm 1 mps 758 mmHg 63%
    08:00 +26°C° 0,1 mm 1 mps 758 mmHg 59%
    09:00 +27°C° 0,1 mm 2 mps 758 mmHg 54%
    10:00 +29°C° 0,1 mm 2 mps 758 mmHg 50%
    11:00 +29°C° 0 mm 2 mps 758 mmHg 49%
    12:00 +29°C° 0 mm 2 mps 758 mmHg 47%
    13:00 +29°C° 0 mm 3 mps 758 mmHg 46%
    14:00 +29°C° 0,1 mm 3 mps 758 mmHg 47%
    15:00 +29°C° 0,1 mm 3 mps 758 mmHg 48%
    16:00 +29°C° 0,1 mm 3 mps 758 mmHg 49%
    17:00 +28°C° 0,2 mm 3 mps 758 mmHg 56%
    18:00 +26°C° 0,2 mm 3 mps 758 mmHg 63%
    19:00 +24°C° 0,2 mm 3 mps 759 mmHg 71%
    20:00 +22°C° 0,2 mm 3 mps 759 mmHg 75%
    21:00 +21°C° 0,2 mm 3 mps 759 mmHg 79%
    22:00 +20°C° 0,2 mm 3 mps 760 mmHg 84%
    23:00 +19°C° 0 mm 3 mps 760 mmHg 83%

    19 Agosto, Domingo

    Tiempo Temperatura Precipitaciones Viento Presión Humedad
    00:00 +18°C° 0 mm 2 mps 760 mmHg 83%
    01:00 +17°C° 0 mm 2 mps 760 mmHg 83%
    02:00 +17°C° 0 mm 2 mps 760 mmHg 81%
    03:00 +16°C° 0 mm 2 mps 760 mmHg 79%
    04:00 +16°C° 0 mm 1 mps 760 mmHg 77%
    05:00 +17°C° 0 mm 2 mps 761 mmHg 73%
    06:00 +18°C° 0 mm 2 mps 761 mmHg 68%
    07:00 +19°C° 0 mm 2 mps 761 mmHg 64%
    08:00 +21°C° 0 mm 2 mps 761 mmHg 59%
    09:00 +24°C° 0 mm 3 mps 761 mmHg 53%
    10:00 +25°C° 0 mm 3 mps 761 mmHg 48%
    11:00 +26°C° 0 mm 3 mps 761 mmHg 46%
    12:00 +27°C° 0 mm 4 mps 761 mmHg 44%
    13:00 +28°C° 0 mm 4 mps 760 mmHg 43%
    14:00 +28°C° 0 mm 4 mps 760 mmHg 44%
    15:00 +27°C° 0 mm 3 mps 760 mmHg 45%
    16:00 +27°C° 0 mm 3 mps 760 mmHg 47%
    17:00 +26°C° 0 mm 3 mps 760 mmHg 52%
    18:00 +25°C° 0 mm 2 mps 760 mmHg 58%
    19:00 +23°C° 0 mm 2 mps 760 mmHg 64%
    20:00 +22°C° 0 mm 1 mps 760 mmHg 67%
    21:00 +22°C° 0 mm 1 mps 760 mmHg 71%
    22:00 +21°C° 0 mm 1 mps 760 mmHg 75%
    23:00 +20°C° 0 mm 1 mps 760 mmHg 77%

    20 Agosto, Lunes

    Tiempo Temperatura Precipitaciones Viento Presión Humedad
    00:00 +20°C° 0 mm 1 mps 760 mmHg 78%
    01:00 +18°C° 0 mm 0 mps 760 mmHg 80%
    02:00 +19°C° 0 mm 1 mps 760 mmHg 81%
    03:00 +19°C° 0 mm 1 mps 760 mmHg 81%
    04:00 +19°C° 0 mm 1 mps 759 mmHg 81%
    05:00 +19°C° 0 mm 2 mps 759 mmHg 76%
    06:00 +20°C° 0 mm 2 mps 759 mmHg 71%
    07:00 +23°C° 0 mm 2 mps 759 mmHg 66%
    08:00 +24°C° 0 mm 3 mps 759 mmHg 59%
    09:00 +26°C° 0 mm 3 mps 759 mmHg 52%
    10:00 +28°C° 0 mm 4 mps 759 mmHg 45%
    11:00 +29°C° 0 mm 4 mps 758 mmHg 44%
    12:00 +30°C° 0 mm 4 mps 758 mmHg 42%
    13:00 +30°C° 0 mm 4 mps 758 mmHg 40%
    14:00 +30°C° 0 mm 4 mps 757 mmHg 40%
    15:00 +30°C° 0 mm 4 mps 757 mmHg 40%
    16:00 +30°C° 0 mm 4 mps 757 mmHg 41%
    17:00 +29°C° 0 mm 3 mps 757 mmHg 45%
    18:00 +28°C° 0 mm 3 mps 757 mmHg 49%
    19:00 +26°C° 0 mm 2 mps 757 mmHg 53%
    20:00 +26°C° 0 mm 2 mps 757 mmHg 57%
    21:00 +25°C° 0 mm 2 mps 757 mmHg 61%
    22:00 +24°C° 0 mm 2 mps 757 mmHg 64%
    23:00 +23°C° 0 mm 2 mps 757 mmHg 68%

    21 Agosto, Martes

    Tiempo Temperatura Precipitaciones Viento Presión Humedad
    00:00 +23°C° 0 mm 2 mps 757 mmHg 72%
    01:00 +22°C° 0 mm 1 mps 757 mmHg 76%
    02:00 +20°C° 0 mm 2 mps 757 mmHg 78%
    03:00 +20°C° 0 mm 2 mps 757 mmHg 80%
    04:00 +19°C° 0 mm 2 mps 757 mmHg 83%
    05:00 +20°C° 0 mm 2 mps 757 mmHg 79%
    06:00 +21°C° 0 mm 3 mps 757 mmHg 76%
    07:00 +22°C° 0 mm 3 mps 758 mmHg 73%
    08:00 +24°C° 0 mm 3 mps 758 mmHg 70%
    09:00 +25°C° 0 mm 4 mps 758 mmHg 67%
    10:00 +25°C° 0 mm 4 mps 758 mmHg 64%
    11:00 +26°C° 0 mm 4 mps 758 mmHg 59%
    12:00 +27°C° 0 mm 4 mps 757 mmHg 55%
    13:00 +28°C° 0 mm 4 mps 757 mmHg 50%
    14:00 +28°C° 0 mm 4 mps 757 mmHg 50%
    15:00 +28°C° 0 mm 3 mps 757 mmHg 51%
    16:00 +28°C° 0 mm 3 mps 757 mmHg 51%
    17:00 +27°C° 0 mm 3 mps 757 mmHg 56%
    18:00 +26°C° 0 mm 2 mps 756 mmHg 60%
    19:00 +25°C° 0 mm 2 mps 756 mmHg 64%
    20:00 +24°C° 0 mm 2 mps 756 mmHg 67%
    21:00 +23°C° 0 mm 2 mps 756 mmHg 70%
    22:00 +23°C° 0 mm 2 mps 756 mmHg 72%
    23:00 +21°C° 0 mm 2 mps 756 mmHg 74%
    Mostrar más